Location: *
(45.1961°N, 1.9694°E)
Time: 08:13:54
(UTC+00:00)

Thor Agena Rocket - Pass Details

Date: 25 August 2019
Orbit: 760 x 807 km, 99.0° (Epoch: 18 September)

Event Time Altitude Azimuth Distance (km) Brightness Sun altitude
Rises 21:28:55 0° 15° (NNE) 3,285 7.2 -25.3°
Reaches altitude 10° 21:31:14 10° 17° (NNE) 2,359 6.4 -25.6°
Maximum altitude 21:36:27 81° 104° (ESE) 811 3.4 -26.1°
Enters shadow 21:36:29 81° 110° (ESE) 811 3.4 -26.1°
